FW9789 Weather Reports


Display with metric or nautical units.
time (UTC)temp
F
wind
direction
speed
MPH
gust
MPH
rain 1hr
in
rain 24hr
in
rain mn
in
humidity
%
barometer
mb
20260906085007 50 135 9.0 18.0 0.00 1.44 1.44 17 1014.4
20260906084006 50 135 7.0 18.0 0.00 1.44 1.44 17 1014.5
20260906083006 50 90 7.0 21.0 0.00 1.44 1.44 17 1014.4
20260906082006 50 90 9.0 21.0 0.00 1.44 1.44 17 1014.3
20260906074006 49 90 7.0 21.0 0.00 1.44 1.44 17 1013.7
20260906072006 49 90 8.0 17.0 0.00 1.44 1.44 17 1013.4
20260906071006 49 135 7.0 20.0 0.00 1.44 1.44 17 1013.2
20260906065006 50 135 7.0 17.0 0.00 1.44 1.44 17 1013.0
20260906064005 49 90 7.0 20.0 0.00 1.44 1.44 17 1012.7
20260906062007 49 90 8.0 17.0 0.00 1.44 1.44 17 1012.5
20260906055006 49 90 6.0 17.0 0.00 1.44 1.44 17 1012.2
20260906054006 49 135 6.0 17.0 0.00 1.44 1.44 17 1012.2
20260906052006 49 135 7.0 17.0 0.00 1.44 1.44 17 1012.0
20260906051007 49 45 9.0 17.0 0.00 1.44 1.44 17 1011.8
20260906045006 49 90 7.0 17.0 0.00 1.44 1.44 17 1011.9
20260906044006 49 90 10.0 18.0 0.00 1.44 1.44 17 1011.6
20260906043006 49 90 9.0 17.0 0.00 1.44 1.44 17 1011.8
20260906042006 49 90 7.0 17.0 0.00 1.44 1.44 17 1011.7
20260906041006 49 90 7.0 16.0 0.00 1.44 1.44 17 1011.4
20260906035005 49 45 5.0 16.0 0.00 1.44 1.44 17 1011.1
20260906034006 49 90 5.0 18.0 0.00 1.44 1.44 17 1011.0
20260906033006 49 90 6.0 21.0 0.00 1.44 1.44 17 1010.9
20260906032006 49 338 9.0 20.0 0.00 1.44 1.44 17 1011.0
20260906031006 50 90 9.0 17.0 0.00 1.44 1.44 17 1010.9
20260906025006 50 135 8.0 18.0 0.00 1.44 1.44 17 1010.7
20260906024005 50 135 8.0 17.0 0.00 1.44 1.44 17 1010.5
20260906023006 50 90 9.0 22.0 0.00 1.44 1.44 17 1010.3
20260906022005 50 180 6.0 17.0 0.00 1.44 1.44 17 1010.2
20260906021006 51 90 6.0 15.0 0.00 1.44 1.44 17 1010.2
20260906015006 51 90 6.0 17.0 0.00 1.44 1.44 17 1010.1
20260906014006 51 45 7.0 18.0 0.00 1.44 1.44 17 1010.1
20260906013006 51 158 9.0 17.0 0.00 1.44 1.44 17 1010.0
20260906004006 52 45 7.0 16.0 0.00 1.44 1.44 17 1009.5
20260906003007 52 90 8.0 15.0 0.00 1.44 1.44 17 1009.7
20260906002005 52 45 6.0 15.0 0.00 1.44 1.44 17 1009.5
20260906001007 52 90 7.0 15.0 0.00 1.44 1.44 17 1009.3
20260905235006 52 45 6.0 18.0 0.00 1.44 1.44 17 1009.0
20260905234006 52 90 6.0 14.0 0.00 1.44 1.44 17 1009.3
20260905233006 52 135 9.0 16.0 0.00 1.44 1.44 17 1009.2
20260905221007 53 90 4.0 10.0 0.00 1.44 1.44 17 1008.6
20260905215006 53 135 6.0 17.0 0.00 1.44 1.44 17 1008.6
20260905214006 53 90 6.0 16.0 0.00 1.44 1.44 17 1008.5
20260905213006 53 45 8.0 14.0 0.00 1.44 1.44 17 1008.4
20260905212005 52 90 5.0 14.0 0.00 1.44 1.44 17 1008.3
20260905211006 53 45 5.0 16.0 0.00 1.44 1.44 17 1008.4
20260905205006 53 90 5.0 13.0 0.00 1.44 1.44 17 1008.1
20260905204006 53 90 7.0 15.0 0.00 1.44 1.44 17 1008.3
20260905202007 53 90 7.0 15.0 0.00 1.44 1.44 17 1008.0
20260905195006 53 45 7.0 17.0 0.00 1.44 1.44 17 1007.7
20260905194005 53 90 5.0 16.0 0.00 1.44 1.44 17 1007.8
20260905192005 53 90 6.0 15.0 0.00 1.44 1.44 17 1007.5
20260905191005 53 90 8.0 18.0 0.00 1.44 1.44 17 1007.7
20260905184005 53 90 3.0 18.0 0.00 1.44 1.44 17 1007.3
20260905183006 53 90 6.0 16.0 0.00 1.44 1.44 17 1007.5
20260905182007 53 90 6.0 15.0 0.00 1.44 1.44 17 1007.3
20260905175006 53 45 7.0 23.0 0.00 1.44 1.44 17 1007.1
20260905174006 53 135 8.0 23.0 0.00 1.44 1.44 17 1007.0
20260905173006 53 90 6.0 15.0 0.00 1.44 1.44 17 1006.9
20260905165005 53 45 3.0 15.0 0.00 1.44 1.44 17 1006.5
20260905164005 53 90 6.0 18.0 0.00 1.44 1.44 17 1006.2
20260905163005 53 45 6.0 13.0 0.00 1.44 1.44 17 1006.3
20260905162006 53 90 6.0 13.0 0.00 1.44 1.44 17 1006.1
20260905161006 53 225 6.0 15.0 0.00 1.44 1.44 17 1005.9
20260905141006 53 135 5.0 13.0 0.00 1.44 1.44 17 1004.8
20260905135005 52 45 7.0 17.0 0.00 1.44 1.44 17 1004.6
20260905134005 52 135 6.0 17.0 0.00 1.44 1.44 17 1004.6
20260905133005 52 90 8.0 18.0 0.00 1.44 1.44 17 1004.5
20260905132005 53 90 6.0 15.0 0.00 1.44 1.44 17 1004.3
20260905131005 53 90 7.0 13.0 0.00 1.44 1.44 17 1004.5
20260905125005 53 0 7.0 20.0 0.00 1.44 1.44 17 1004.2
20260905124006 53 135 7.0 17.0 0.00 1.44 1.44 17 1004.1
20260905123006 53 90 8.0 17.0 0.00 1.44 1.44 17 1004.1
20260905122006 53 90 7.0 15.0 0.00 1.44 1.44 17 1003.9
20260905121006 53 90 5.0 10.0 0.01 1.44 1.44 17 1004.0
20260905115006 52 90 5.0 16.0 0.01 1.44 1.44 17 1003.7
20260905114006 52 45 7.0 18.0 0.01 1.44 1.44 17 1003.6
20260905113006 52 45 5.0 20.0 0.01 1.44 1.44 17 1003.5
20260905112005 52 90 7.0 15.0 0.02 1.44 1.44 17 1003.3
20260905111006 52 90 7.0 17.0 0.01 1.44 1.44 17 1003.4
20260905105006 52 90 9.0 21.0 0.01 1.44 1.44 17 1003.0
20260905104005 52 90 8.0 18.0 0.01 1.44 1.44 17 1002.9
20260905103006 52 90 7.0 18.0 0.01 1.44 1.44 17 1002.7
20260905102005 53 45 6.0 15.0 0.00 1.44 1.44 17 1002.7
20260905101006 53 90 5.0 17.0 0.00 1.44 1.44 17 1002.6
20260905095006 53 90 10.0 21.0 0.00 1.44 1.44 17 1002.3
20260905094006 54 45 9.0 21.0 0.00 1.44 1.44 17 1002.1
20260905093006 56 135 7.0 14.0 0.00 1.44 1.44 17 1001.9
20260905092005 55 90 6.0 17.0 0.00 1.44 1.44 17 1002.0
20260905091006 55 180 6.0 13.0 0.00 1.44 1.44 17 1001.6